This is the latest recevied weather packets stored in our database for station/object KD0JCP-10. If no packets are shown the sender has not sent any weather packets the latest 1 day(s).
| Time | Temp. | Humidity | Pressure | Rain* | Wind** | Luminosity | Snow |
|---|---|---|---|---|---|---|---|
| 1778055971 | 5.56° C | 58% | 1018.3 hPa | 0 mm | - | - | - |
| 1778055671 | 6.11° C | 58% | 1018.3 hPa | 0 mm | - | - | - |
| 1778055371 | 6.11° C | 57% | 1018.3 hPa | 0 mm | - | - | - |
| 1778055071 | 6.11° C | 56% | 1018.2 hPa | 0 mm | - | - | - |
| 1778054771 | 6.11° C | 56% | 1018.2 hPa | 0 mm | - | - | - |
| 1778053871 | 6.67° C | 57% | 1018 hPa | 0 mm | - | - | - |
| 1778053571 | 6.67° C | 57% | 1018.1 hPa | 0 mm | - | - | - |
| 1778052971 | 6.67° C | 56% | 1018.1 hPa | 0 mm | - | - | - |
| 1778052671 | 7.22° C | 55% | 1018.1 hPa | 0 mm | - | - | - |
| 1778052371 | 7.22° C | 54% | 1018.2 hPa | 0 mm | - | - | - |
| 1778052071 | 7.22° C | 54% | 1018.1 hPa | 0 mm | - | - | - |
| 1778051471 | 7.78° C | 53% | 1018.1 hPa | 0 mm | - | - | - |
| 1778050571 | 7.78° C | 50% | 1018.2 hPa | 0 mm | - | - | - |
| 1778049671 | 8.33° C | 45% | 1018.1 hPa | 0 mm | - | - | - |
| 1778046971 | 8.89° C | 45% | 1017.8 hPa | 0 mm | - | - | - |
| 1778046071 | 8.89° C | 44% | 1017.6 hPa | 0 mm | - | - | - |
| 1778044571 | 8.89° C | 46% | 1017.4 hPa | 0 mm | - | - | - |
| 1778044271 | 8.33° C | 46% | 1017.4 hPa | 0 mm | - | - | - |
| 1778040671 | 8.33° C | 73% | 1017.1 hPa | 0 mm | - | - | - |
| 1778040372 | 8.33° C | 73% | 1017.1 hPa | 0 mm | - | - | - |
| 1778039472 | 8.33° C | 73% | 1017.1 hPa | 0 mm | - | - | - |
| 1778037372 | 8.89° C | 71% | 1016.6 hPa | 0 mm | - | - | - |
| 1778036772 | 8.89° C | 69% | 1016.4 hPa | 0 mm | - | - | - |
| 1778036172 | 8.89° C | 69% | 1016.4 hPa | 0 mm | - | - | - |
| 1778035872 | 8.89° C | 69% | 1016.4 hPa | 0 mm | - | - | - |
* Rain latest hour (hover to see other rain measurements)
** Current wind speed in m/s (hover to see current wind gust speed)